Regional Weather Roundup
Issued by NWS Charleston, WV

Home | Current Version | Previous Version | Graphics & Text | Print | Product List | Glossary On
Versions: 1 2 3 4 5 6 7 8 9 10 11 12 13 14 15 16 17 18 19 20 21 22 23 24 25 26 27 28 29 30 31 32 33 34 35 36 37 38 39 40 41 42 43 44 45 46 47 48 49 50
803
ASUS41 KRLX 181610
RWRRLX
West Virginia Regional Weather Roundup
National Weather Service Charleston WV
1100 AM EST SUN FEB 18 2018

Note: "fair" indicates few or no clouds below 12,000 feet with no
significant weather and/or obstructions to visibility.

WVZ003-181700-
Northern Panhandle of West Virginia

CITY           SKY/WX    TMP DP  RH WIND       PRES   REMARKS
WHEELING       PTSUNNY   35  25  66 N6        30.35R
$$

WVZ009-181700-
Northwest West Virginia

CITY           SKY/WX    TMP DP  RH WIND       PRES   REMARKS
PARKERSBURG    CLOUDY    37  25  61 CALM      30.41S
$$

WVZ006-181700-
Western West Virginia

CITY           SKY/WX    TMP DP  RH WIND       PRES   REMARKS
HUNTINGTON     PTSUNNY   40  28  62 CALM      30.39R
$$

WVZ015-181700-
West Central West Virginia

CITY           SKY/WX    TMP DP  RH WIND       PRES   REMARKS
CHARLESTON     PTSUNNY   40  28  62 CALM      30.40R
$$

WVZ022-031-181700-
North Central West Virginia

CITY           SKY/WX    TMP DP  RH WIND       PRES   REMARKS
CLARKSBURG     CLOUDY    38  28  67 N5        30.37R
MORGANTOWN     PTSUNNY   37  26  64 W6        30.37R
$$

WVZ025-035-042-045-181700-
Southern West Virginia

CITY           SKY/WX    TMP DP  RH WIND       PRES   REMARKS
BECKLEY        PTSUNNY   35  27  72 CALM      30.35R
LOGAN          PTSUNNY   39  28  65 CALM      30.37R
BLUEFIELD        N/A     35  26  69 CALM      30.34R
LEWISBURG      CLOUDY    37  28  69 SW5       30.37R
$$

WVZ047-181700-
Northern Mountains of West Virginia

CITY           SKY/WX    TMP DP  RH WIND       PRES   REMARKS
ELKINS         CLOUDY    34  28  79 CALM      30.36R
$$

WVZ052-181700-
Eastern Panhandle of West Virginia

CITY           SKY/WX    TMP DP  RH WIND       PRES   REMARKS
MARTINSBURG    PTSUNNY   42  28  57 N8        30.37R
PETERSBURG     CLOUDY    40  26  56 W6        30.38R
$$




USA.gov is the U.S. government's official web portal to all federal, state and local government web resources and services.